Fergus Falls, MN

11:11 AM CST on November 17, 2019 (GMT -0600)
Fergus Falls Municipal-Mickelson

Weather History for KFFM - September, 2019

Change the Weather History Date:

Tuesday, September 3, 2019

  Actual Average Record
Temperature  
Mean Temperature 60 °F -  
Max Temperature 66 °F 75 °F 95 °F (1983)
Min Temperature 53 °F 53 °F 32 °F (1974)
Degree Days  
Heating Degree Days 6    
Growing Degree Days 10 (Base 50)    
Moisture  
Dew Point 55 °F    
Average Humidity 83    
Maximum Humidity 100    
Minimum Humidity 64    
Precipitation  
Precipitation 0.09 in - - ()
Sea Level Pressure  
Sea Level Pressure 29.90 in    
Wind  
Wind Speed 9 mph ()    
Max Wind Speed 24 mph    
Max Gust Speed 33 mph    
Visibility 9.7 miles    
Events      
Averages and records for this station are not official NWS values.
T = Trace of Precipitation, MM = Missing Value Source: Averaged Metar Reports

Daily Weather History Graph

Daily Weather History Graph

Search for Another Location

Airport or City:

Astronomy

Sep. 03, 2019 Rise Set
Actual Time 6:47 AM CDT 7:59 PM CDT
Civil Twilight 6:16 AM CDT 8:30 PM CDT
Nautical Twilight 5:39 AM CDT 9:07 PM CDT
Astronomical Twilight 4:59 AM CDT 9:47 PM CDT
Moon 11:57 AM CDT (9/3) 10:39 PM CDT (9/3)
Length of Visible Light 14h 14m
Length of Day
13h 12m
Waxing Crescent, 25% of the Moon is Illuminated
Sep 3
Waxing Crescent
Sep 5
First Quarter
Sep 13
Full
Sep 21
Last Quarter
Sep 28
New

Hourly Weather History & Observations

Time (CDT) Temp. Dew Point Humidity Pressure Visibility Wind Dir Wind Speed Gust Speed Precip Events Conditions
12:15 AM 60.8 °F 57.2 °F 88% 29.79 in 10.0 mi SSW 3.5 mph - N/A   Overcast
12:16 AM 60.8 °F 57.2 °F 88% 29.79 in 10.0 mi SSW 3.5 mph - 0.01 in   Overcast
12:35 AM 60.8 °F 57.2 °F 88% 29.80 in 10.0 mi SW 4.6 mph - 0.01 in   Overcast
12:39 AM 60.8 °F 57.2 °F 88% 29.80 in 10.0 mi WSW 3.5 mph - 0.01 in   Overcast
12:58 AM 60.8 °F 57.2 °F 88% 29.79 in 10.0 mi WSW 3.5 mph - N/A   Mostly Cloudy
1:16 AM 60.8 °F 57.2 °F 88% 29.79 in 10.0 mi WSW 4.6 mph - 0.01 in   Mostly Cloudy
1:35 AM 60.8 °F 57.2 °F 88% 29.78 in 10.0 mi SW 3.5 mph - 0.01 in   Mostly Cloudy
1:36 AM 60.8 °F 57.2 °F 88% 29.78 in 10.0 mi WSW 4.6 mph - 0.01 in   Mostly Cloudy
1:55 AM 60.8 °F 57.2 °F 88% 29.78 in 10.0 mi SW 3.5 mph - 0.01 in   Mostly Cloudy
1:56 AM 60.8 °F 57.2 °F 88% 29.78 in 10.0 mi SW 3.5 mph - N/A   Mostly Cloudy
2:18 AM 59.0 °F 57.2 °F 94% 29.77 in 10.0 mi South 3.5 mph - N/A   Scattered Clouds
2:36 AM 59.0 °F 57.2 °F 94% 29.77 in 10.0 mi SW 3.5 mph - N/A   Mostly Cloudy
2:55 AM 59.0 °F 59.0 °F 100% 29.78 in 10.0 mi WSW 4.6 mph - 0.01 in   Overcast
2:56 AM 59.0 °F 59.0 °F 100% 29.78 in 10.0 mi WSW 4.6 mph - N/A   Overcast
3:15 AM 60.8 °F 59.0 °F 94% 29.78 in 10.0 mi WSW 5.8 mph - N/A   Overcast
3:16 AM 60.8 °F 59.0 °F 94% 29.78 in 10.0 mi SW 6.9 mph - N/A   Overcast
3:35 AM 60.8 °F 60.8 °F 100% 29.78 in 10.0 mi WSW 6.9 mph - 0.01 in   Overcast
3:40 AM 60.8 °F 60.8 °F 100% 29.78 in 10.0 mi WSW 8.1 mph - 0.01 in   Overcast
3:58 AM 60.8 °F 60.8 °F 100% 29.77 in 10.0 mi West 5.8 mph - N/A   Overcast
4:15 AM 60.8 °F 60.8 °F 100% 29.77 in 10.0 mi West 8.1 mph - 0.01 in   Overcast
4:35 AM 60.8 °F 60.8 °F 100% 29.77 in 10.0 mi West 8.1 mph - 0.01 in   Overcast
4:36 AM 60.8 °F 60.8 °F 100% 29.77 in 10.0 mi West 9.2 mph - 0.01 in   Overcast
4:55 AM 60.8 °F 60.8 °F 100% 29.77 in 10.0 mi West 10.4 mph - 0.01 in   Overcast
4:56 AM 60.8 °F 60.8 °F 100% 29.77 in 10.0 mi West 9.2 mph - N/A   Overcast
5:18 AM 60.8 °F 60.8 °F 100% 29.80 in 7.0 mi WNW 12.7 mph 18.4 mph N/A   Overcast
5:37 AM 60.8 °F 60.8 °F 100% 29.80 in 10.0 mi WNW 13.8 mph - N/A   Mostly Cloudy
5:56 AM 60.8 °F 60.8 °F 100% 29.80 in 10.0 mi WNW 9.2 mph - N/A   Scattered Clouds
6:15 AM 59.0 °F 59.0 °F 100% 29.80 in 7.0 mi WNW 9.2 mph - 0.01 in   Clear
6:16 AM 59.0 °F 59.0 °F 100% 29.80 in 7.0 mi WNW 8.1 mph - 0.01 in   Clear
6:35 AM 59.0 °F 59.0 °F 100% 29.80 in 10.0 mi WNW 8.1 mph - 0.01 in   Clear
6:40 AM 59.0 °F 59.0 °F 100% 29.81 in 10.0 mi West 8.1 mph - 0.01 in   Clear
7:16 AM 57.2 °F 57.2 °F 100% 29.82 in 4.0 mi WNW 9.2 mph - N/A   Scattered Clouds
7:35 AM 59.0 °F 59.0 °F 100% 29.83 in 5.0 mi West 8.1 mph - N/A   Clear
7:36 AM 59.0 °F 59.0 °F 100% 29.83 in 5.0 mi West 8.1 mph - N/A   Clear
7:55 AM 59.0 °F 59.0 °F 100% 29.83 in 7.0 mi West 8.1 mph - N/A   Clear
7:56 AM 59.0 °F 59.0 °F 100% 29.83 in 7.0 mi West 8.1 mph - N/A   Clear
8:18 AM 60.8 °F 59.0 °F 94% 29.84 in 10.0 mi WNW 6.9 mph - 0.01 in   Clear
8:36 AM 60.8 °F 59.0 °F 94% 29.84 in 10.0 mi WNW 9.2 mph - 0.01 in   Clear
8:55 AM 62.6 °F 57.2 °F 82% 29.84 in 10.0 mi WNW 16.1 mph 19.6 mph 0.01 in   Clear
9:15 AM 62.6 °F 57.2 °F 82% 29.84 in 10.0 mi NW 19.6 mph 25.3 mph N/A   Clear
9:16 AM 62.6 °F 57.2 °F 82% 29.84 in 10.0 mi NW 18.4 mph 25.3 mph N/A   Clear
9:35 AM 62.6 °F 55.4 °F 77% 29.84 in 10.0 mi NW 23.0 mph 27.6 mph N/A   Clear
9:40 AM 62.6 °F 55.4 °F 77% 29.84 in 10.0 mi NW 19.6 mph 27.6 mph N/A   Clear
9:57 AM 62.6 °F 55.4 °F 77% 29.84 in 10.0 mi NW 20.7 mph 28.8 mph N/A   Clear
10:15 AM 64.4 °F 55.4 °F 73% 29.85 in 10.0 mi NNW 19.6 mph 27.6 mph 0.01 in   Scattered Clouds
10:35 AM 62.6 °F 55.4 °F 77% 29.85 in 10.0 mi NW 19.6 mph - 0.01 in   Scattered Clouds
10:36 AM 62.6 °F 55.4 °F 77% 29.85 in 10.0 mi NW 20.7 mph - 0.01 in   Scattered Clouds
10:55 AM 62.6 °F 55.4 °F 77% 29.86 in 10.0 mi NW 23.0 mph 29.9 mph 0.01 in   Scattered Clouds
10:56 AM 62.6 °F 55.4 °F 77% 29.86 in 10.0 mi NW 24.2 mph 29.9 mph N/A   Scattered Clouds
11:19 AM 64.4 °F 55.4 °F 73% 29.87 in 10.0 mi NW 20.7 mph 26.5 mph 0.01 in   Scattered Clouds
11:36 AM 64.4 °F 53.6 °F 68% 29.87 in 10.0 mi NNW 23.0 mph 29.9 mph 0.01 in   Scattered Clouds
11:56 AM 64.4 °F 53.6 °F 68% 29.88 in 10.0 mi NW 20.7 mph 32.2 mph N/A   Scattered Clouds
12:15 PM 64.4 °F 53.6 °F 68% 29.88 in 10.0 mi NW 19.6 mph 28.8 mph N/A   Mostly Cloudy
12:16 PM 64.4 °F 53.6 °F 68% 29.88 in 10.0 mi NW 20.7 mph 28.8 mph N/A   Mostly Cloudy
12:35 PM 66.2 °F 55.4 °F 68% 29.89 in 10.0 mi NW 23.0 mph 26.5 mph N/A   Mostly Cloudy
12:39 PM 66.2 °F 53.6 °F 64% 29.88 in 10.0 mi NW 19.6 mph 29.9 mph N/A   Mostly Cloudy
12:58 PM 66.2 °F 55.4 °F 68% 29.89 in 10.0 mi NW 20.7 mph 33.4 mph N/A   Scattered Clouds
1:15 PM 66.2 °F 53.6 °F 64% 29.90 in 10.0 mi NW 23.0 mph 29.9 mph N/A   Mostly Cloudy
1:35 PM 66.2 °F 53.6 °F 64% 29.90 in 10.0 mi NW 19.6 mph 33.4 mph N/A   Mostly Cloudy
1:36 PM 66.2 °F 53.6 °F 64% 29.91 in 10.0 mi NW 18.4 mph 33.4 mph N/A   Mostly Cloudy
1:55 PM 64.4 °F 53.6 °F 68% 29.91 in 10.0 mi NW 21.9 mph 29.9 mph N/A   Overcast
1:56 PM 64.4 °F 53.6 °F 68% 29.91 in 10.0 mi NW 21.9 mph 29.9 mph N/A   Overcast
2:18 PM 64.4 °F 53.6 °F 68% 29.93 in 10.0 mi NW 18.4 mph 29.9 mph N/A   Mostly Cloudy
2:37 PM 64.4 °F 53.6 °F 68% 29.93 in 10.0 mi NW 19.6 mph 26.5 mph N/A   Overcast
2:56 PM 62.6 °F 53.6 °F 72% 29.94 in 10.0 mi NNW 20.7 mph 27.6 mph N/A   Overcast
3:15 PM 62.6 °F 53.6 °F 72% 29.95 in 10.0 mi NW 18.4 mph 28.8 mph 0.01 in   Overcast
3:16 PM 62.6 °F 53.6 °F 72% 29.95 in 10.0 mi NW 17.3 mph 28.8 mph 0.01 in   Overcast
3:35 PM 62.6 °F 53.6 °F 72% 29.95 in 10.0 mi NW 18.4 mph 21.9 mph 0.01 in   Overcast
3:57 PM 62.6 °F 53.6 °F 72% 29.96 in 10.0 mi NNW 21.9 mph 27.6 mph N/A   Overcast
4:15 PM 62.6 °F 53.6 °F 72% 29.97 in 10.0 mi NNW 23.0 mph 31.1 mph N/A   Overcast
4:35 PM 62.6 °F 53.6 °F 72% 29.97 in 10.0 mi NNW 17.3 mph 24.2 mph N/A   Overcast
4:55 PM 62.6 °F 51.8 °F 68% 29.98 in 10.0 mi NNW 20.7 mph 28.8 mph N/A   Overcast
4:56 PM 62.6 °F 53.6 °F 72% 29.98 in 10.0 mi NNW 20.7 mph 28.8 mph N/A   Overcast
5:19 PM 60.8 °F 53.6 °F 77% 29.99 in 10.0 mi NNW 15.0 mph 24.2 mph N/A   Overcast
5:36 PM 62.6 °F 53.6 °F 72% 29.99 in 10.0 mi NNW 11.5 mph 18.4 mph N/A   Overcast
5:56 PM 62.6 °F 53.6 °F 72% 30.00 in 10.0 mi NNW 13.8 mph 21.9 mph N/A   Overcast
6:15 PM 62.6 °F 53.6 °F 72% 30.01 in 10.0 mi North 13.8 mph 21.9 mph N/A   Overcast
6:35 PM 62.6 °F 53.6 °F 72% 30.02 in 10.0 mi NNW 11.5 mph 16.1 mph N/A   Overcast
6:57 PM 62.6 °F 51.8 °F 68% 30.02 in 10.0 mi North 10.4 mph 19.6 mph N/A   Scattered Clouds
7:16 PM 60.8 °F 51.8 °F 72% 30.03 in 10.0 mi NNW 12.7 mph - N/A   Mostly Cloudy
7:35 PM 60.8 °F 51.8 °F 72% 30.03 in 10.0 mi North 11.5 mph - N/A   Overcast
7:36 PM 60.8 °F 51.8 °F 72% 30.03 in 10.0 mi NNW 11.5 mph - N/A   Overcast
7:55 PM 60.8 °F 51.8 °F 72% 30.04 in 10.0 mi NNW 8.1 mph - N/A   Overcast
7:56 PM 60.8 °F 51.8 °F 72% 30.04 in 10.0 mi North 8.1 mph - N/A   Overcast
8:18 PM 57.2 °F 51.8 °F 82% 30.06 in 10.0 mi NNW 6.9 mph - N/A   Mostly Cloudy
8:36 PM 57.2 °F 51.8 °F 82% 30.06 in 10.0 mi NNW 6.9 mph - N/A   Mostly Cloudy
8:56 PM 57.2 °F 51.8 °F 82% 30.07 in 10.0 mi NNW 10.4 mph - N/A   Overcast
9:15 PM 57.2 °F 51.8 °F 82% 30.08 in 10.0 mi NNW 8.1 mph - N/A   Overcast
9:35 PM 57.2 °F 51.8 °F 82% 30.08 in 10.0 mi NNW 9.2 mph - N/A   Overcast
9:39 PM 57.2 °F 51.8 °F 82% 30.08 in 10.0 mi NNW 9.2 mph - N/A   Overcast
9:57 PM 57.2 °F 51.8 °F 82% 30.09 in 10.0 mi NNW 8.1 mph - N/A   Overcast
10:16 PM 55.4 °F 51.8 °F 88% 30.10 in 10.0 mi North 6.9 mph - N/A   Mostly Cloudy
10:35 PM 55.4 °F 50.0 °F 82% 30.10 in 10.0 mi North 9.2 mph - N/A   Scattered Clouds
10:36 PM 55.4 °F 50.0 °F 82% 30.10 in 10.0 mi NNW 8.1 mph - N/A   Clear
10:55 PM 53.6 °F 48.2 °F 82% 30.11 in 10.0 mi North 5.8 mph - N/A   Clear
10:56 PM 53.6 °F 48.2 °F 82% 30.11 in 10.0 mi NNW 5.8 mph - N/A   Clear
11:18 PM 53.6 °F 48.2 °F 82% 30.12 in 10.0 mi North 4.6 mph - N/A   Mostly Cloudy
11:36 PM 53.6 °F 48.2 °F 82% 30.12 in 10.0 mi North 3.5 mph - N/A   Mostly Cloudy
11:55 PM 53.6 °F 46.4 °F 77% 30.12 in 10.0 mi North 5.8 mph - N/A   Scattered Clouds